FW7618 Weather Reports


Display with metric or nautical units.
time (UTC)temp
F
wind
direction
speed
MPH
gust
MPH
rain 1hr
in
rain 24hr
in
rain mn
in
humidity
%
barometer
mb
20260902221546 93 96 3.0 6.0 0.00 0.00 0.00 54 1018.5
20260902214554 94 78 1.0 4.0 0.00 0.00 0.00 54 1018.6
20260902213046 94 67 0.0 4.0 0.00 0.00 0.00 53 1018.5
20260902211553 94 93 2.0 4.0 0.00 0.00 0.00 53 1018.5
20260902210113 94 121 3.0 6.0 0.00 0.00 0.00 53 1018.6
20260902204554 94 67 1.0 6.0 0.00 0.00 0.00 52 1018.7
20260902203045 94 79 2.0 6.0 0.00 0.00 0.00 51 1018.8
20260902201546 94 82 1.0 6.0 0.00 0.00 0.00 51 1018.9
20260902200046 95 15 1.0 4.0 0.00 0.00 0.00 54 1018.9
20260902194544 95 67 2.0 7.0 0.00 0.00 0.00 50 1019.2
20260902193054 95 121 1.0 5.0 0.00 0.00 0.00 50 1019.4
20260902191600 95 95 2.0 6.0 0.00 0.00 0.00 51 1019.6
20260902190049 96 0 0.0 5.0 0.00 0.00 0.00 50 1019.7
20260902184624 95 90 1.0 7.0 0.00 0.00 0.00 49 1019.9
20260902183047 95 17 1.0 6.0 0.00 0.00 0.00 52 1019.9
20260902181603 95 0 1.0 6.0 0.00 0.00 0.00 55 1019.9
20260902180110 94 86 1.0 3.0 0.00 0.00 0.00 56 1020.0
20260902174554 93 86 2.0 7.0 0.00 0.00 0.00 55 1020.2
20260902173056 94 89 3.0 6.0 0.00 0.00 0.00 54 1020.5
20260902171555 93 92 2.0 7.0 0.00 0.00 0.00 55 1020.5
20260902170051 93 86 2.0 4.0 0.00 0.00 0.00 56 1020.7
20260902164548 92 101 3.0 7.0 0.00 0.00 0.00 56 1020.6
20260902163043 92 103 0.0 4.0 0.00 0.00 0.00 57 1020.7
20260902161542 92 52 0.0 6.0 0.00 0.00 0.00 59 1020.8
20260902160051 91 64 0.0 3.0 0.00 0.00 0.00 61 1020.9
20260902154544 90 0 0.0 4.0 0.00 0.00 0.00 62 1021.0
20260902153052 89 105 2.0 4.0 0.00 0.00 0.00 64 1021.0
20260902151550 88 98 2.0 4.0 0.00 0.00 0.00 65 1021.1
20260902150044 87 102 0.0 3.0 0.00 0.00 0.00 68 1021.3
20260902144606 86 102 0.0 4.0 0.00 0.00 0.00 70 1021.2
20260902143053 84 88 1.0 3.0 0.00 0.00 0.00 72 1021.2
20260902141545 83 101 1.0 3.0 0.00 0.00 0.00 74 1021.3
20260902140055 82 84 0.0 3.0 0.00 0.00 0.00 76 1021.2
20260902134555 81 82 2.0 3.0 0.00 0.00 0.00 77 1021.1
20260902133045 80 355 0.0 2.0 0.00 0.00 0.00 79 1021.0
20260902131542 79 0 0.0 0.0 0.00 0.00 0.00 81 1021.0
20260902130053 78 0 0.0 0.0 0.00 0.00 0.00 82 1021.1
20260902124545 77 0 0.0 0.0 0.00 0.00 0.00 84 1021.0
20260902123046 76 0 0.0 0.0 0.00 0.00 0.00 85 1020.9
20260902121552 76 0 0.0 0.0 0.00 0.00 0.00 85 1020.8
20260902120051 76 0 0.0 2.0 0.00 0.00 0.00 86 1020.7
20260902114548 75 0 0.0 0.0 0.00 0.00 0.00 86 1020.6
20260902113054 75 0 0.0 1.0 0.00 0.00 0.00 87 1020.5
20260902111549 75 0 0.0 0.0 0.00 0.00 0.00 87 1020.3
20260902110044 75 0 0.0 0.0 0.00 0.00 0.00 87 1020.3
20260902104543 75 0 0.0 0.0 0.00 0.00 0.00 87 1020.4
20260902103049 75 0 0.0 0.0 0.00 0.00 0.00 87 1020.4
20260902101545 75 0 0.0 0.0 0.00 0.00 0.00 86 1020.2
20260902100104 75 0 0.0 0.0 0.00 0.00 0.00 87 1020.1
20260902094542 75 0 0.0 0.0 0.00 0.00 0.00 87 1020.3
20260902093047 75 0 0.0 0.0 0.00 0.00 0.00 87 1020.2
20260902091550 75 0 0.0 0.0 0.00 0.00 0.00 87 1020.2
20260902090052 75 0 0.0 0.0 0.00 0.00 0.00 86 1020.0
20260902084554 75 0 0.0 0.0 0.00 0.00 0.00 86 1019.7
20260902083054 76 0 0.0 0.0 0.00 0.00 0.00 86 1019.7
20260902081545 76 0 0.0 0.0 0.00 0.00 0.00 85 1019.5
20260902080057 76 0 0.0 0.0 0.00 0.00 0.00 85 1019.5
20260902074542 76 0 0.0 0.0 0.00 0.00 0.00 85 1019.4
20260902073048 77 0 0.0 0.0 0.00 0.00 0.00 84 1019.5
20260902071544 78 0 0.0 0.0 0.00 0.00 0.00 82 1019.5
20260902070044 78 0 0.0 0.0 0.00 0.00 0.00 80 1019.4
20260902064605 79 0 0.0 0.0 0.00 0.00 0.00 79 1019.4
20260902063046 79 0 0.0 0.0 0.00 0.00 0.00 78 1019.3
20260902061552 80 0 0.0 0.0 0.00 0.00 0.00 78 1019.5
20260902060052 80 0 0.0 0.0 0.00 0.00 0.00 77 1019.5
20260902054547 80 0 0.0 0.0 0.00 0.00 0.00 77 1019.5
20260902053044 80 0 0.0 2.0 0.00 0.00 0.00 76 1019.5
20260902051546 80 0 0.0 0.0 0.00 0.00 0.00 76 1019.6
20260902050049 81 0 0.0 0.0 0.00 0.00 0.00 76 1019.6
20260902044546 81 0 0.0 0.0 0.00 0.00 0.00 75 1019.4
20260902043043 81 0 0.0 0.0 0.00 0.00 0.00 74 1019.4
20260902041553 82 0 0.0 1.0 0.00 0.00 0.00 74 1019.5
20260902040050 82 0 0.0 0.0 0.00 0.00 0.00 74 1019.6
20260902034556 82 0 0.0 0.0 0.00 0.00 0.00 74 1019.6
20260902033058 83 0 0.0 0.0 0.00 0.00 0.00 73 1019.6
20260902031551 83 0 0.0 0.0 0.00 0.00 0.00 72 1019.6
20260902030049 84 0 0.0 1.0 0.00 0.00 0.00 71 1019.4
20260902024547 83 355 0.0 4.0 0.00 0.00 0.00 70 1019.4
20260902023043 83 0 0.0 2.0 0.00 0.00 0.00 71 1019.3
20260902021542 83 0 0.0 3.0 0.00 0.00 0.00 72 1019.4
20260902020050 83 0 0.0 0.0 0.00 0.00 0.00 72 1019.4
20260902014546 83 0 0.0 0.0 0.00 0.00 0.00 73 1019.4
20260902013044 83 0 0.0 0.0 0.00 0.00 0.00 71 1019.4
20260902011545 84 0 0.0 0.0 0.00 0.00 0.00 70 1019.2
20260902010043 85 0 0.0 0.0 0.00 0.00 0.00 68 1019.0
20260902004553 86 0 0.0 0.0 0.00 0.00 0.00 66 1018.8
20260902003050 87 0 0.0 0.0 0.00 0.00 0.00 64 1018.9
20260902001546 89 0 0.0 0.0 0.00 0.00 0.00 61 1018.9
20260902000043 89 0 0.0 0.0 0.00 0.00 0.00 59 1018.9
20260901234556 90 0 0.0 0.0 0.00 0.00 0.00 57 1018.9
20260901233050 91 0 0.0 0.0 0.00 0.00 0.00 55 1019.1
20260901231546 92 0 0.0 1.0 0.00 0.00 0.00 53 1019.1
20260901230043 92 91 1.0 3.0 0.00 0.00 0.00 54 1019.0
20260901224554 92 80 1.0 3.0 0.00 0.00 0.00 54 1018.9
20260901223048 93 0 0.0 3.0 0.00 0.00 0.00 53 1019.0